闪电 1-29星 (MOLNIYA 1-29)

导读

MOLNIYA 1-29(闪电1-29)是苏联解体后独立国家联合体(CIS)继承的第一代闪电系列通信卫星,于1975年4月29日发射升空,运行在以该系列命名的“闪电轨道”上。作为针对高纬度地区优化的通信卫星,它主要承担电视转播、跨区域通信任务,也兼顾军用通信需求,其大椭圆轨道设计可让卫星大部分时间停留北半球上空,为苏联高纬度区域提供稳定通信服务,是早期闪电星座组网运行的重要组成部分。

Basic Information
目录编号:
7780
目录名称:
MOLNIYA 1-29
国际标识:
1975-036A
轨道中心:
EARTH
卫星名称:
闪电 1-29星
卫星全名:
闪电 1-29星 (MOLNIYA 1-29)
卫星状态:
在轨 (已飞行18718 天)
发射日期:
1975-04-29 UTC
国别 :
俄罗斯(独联体) (CIS)
星等 :
--
Orbit Information
数据来源 国际轨道数据 AOE轨道数据
星历时间 2026-07-26T23:07:26+0800
1天前
查看轨道信息
2026-07-26T23:00:00+0800
1天前
查看轨道信息
半长轴 26554.4km 26554.409km
偏心率 0.692857 0.6928248
轨道倾角 64.146° 64.146°
近地点辐角 278.591° 278.594°
升交点赤经 56.631° 56.631°
平近点角 14.577° 10.845°
近地点 1777.861km 1778.718km
远地点 38574.665km 38573.826km
周期 717.736分钟 717.736分钟
每日圈数 2.00631 2.006309
Detailed Information
平衡模式:
三轴稳定
覆盖范围:
全球
运营商:
俄罗斯国家航天集团
运营商所在国:
俄罗斯
制造商(研发单位):
普里克拉德诺伊·梅哈尼基设计局
制造商所在国:
俄罗斯联邦
使用方式:
暂无
Satellite Introduction
闪电(Molniya (Satellite))系列卫星是苏联/俄罗斯于1965年至2004年间发射的军事和通信卫星。这些卫星使用高度偏心的椭圆轨道,称为Molniya轨道(即闪电轨道),在高纬度地区具有较长的停留时间。该卫星状态未知。
2D Orbit Map
3D Orbit Map
Orbit Altitude Analysis Chart
Orbit Inclination Analysis Chart
Orbit Comprehensive Analysis Chart
View Comprehensive Chart